Location: Unspecified
(43.3830°N, 0.0000°E)
Time: 19:14:40
(UTC+00:00)

SR - Visible Passes

Search period start: 07 August 2020 00:00
Search period end: 17 August 2020 00:00
Orbit: 584 x 871 km, 66.7° (Epoch: 07 August)

Date Brightness Start Highest point End Pass type
(mag) Time Alt. Az. Time Alt. Az. Time Alt. Az.
07 Aug ? 21:15:24 15° ENE 21:15:24 15° ENE 21:16:32 10° ENE visible
07 Aug ? 22:54:44 41° WNW 22:54:53 41° NW 22:59:02 10° NNE visible
08 Aug ? 22:05:21 81° N 22:05:21 81° N 22:09:31 10° NNE visible
08 Aug ? 23:45:36 10° WNW 23:47:46 13° NW 23:49:54 10° N visible
09 Aug ? 21:15:37 43° ESE 21:15:37 43° ESE 21:19:41 10° NE visible
09 Aug ? 22:54:54 14° W 22:57:41 23° NW 23:01:11 10° N visible
10 Aug ? 20:25:08 19° SE 20:26:02 20° ESE 20:29:18 10° ENE visible
10 Aug ? 22:04:19 15° WSW 22:07:46 44° NW 22:11:57 10° NNE visible
11 Aug ? 21:13:25 10° SSW 21:18:02 88° ESE 21:22:24 10° NNE visible
11 Aug ? 22:58:17 10° WNW 23:00:37 14° NW 23:02:54 10° N visible
12 Aug ? 04:12:25 10° NNE 04:14:16 12° NE 04:16:10 10° ENE visible
12 Aug ? 20:24:07 10° S 20:28:26 40° ESE 20:32:31 10° NE visible
12 Aug ? 22:06:50 10° WSW 22:10:32 24° NW 22:14:07 10° N visible
13 Aug ? 19:35:44 10° SSE 19:38:58 19° ESE 19:42:04 10° ENE visible
13 Aug ? 21:16:15 10° SW 21:20:39 47° NW 21:24:51 10° NNE visible
14 Aug ? 04:13:57 10° N 04:17:15 21° NE 04:20:39 10° E visible
14 Aug ? 20:26:21 10° SSW 20:30:55 82° ESE 20:35:16 10° NNE visible
14 Aug ? 22:10:59 10° WNW 22:13:28 15° NW 22:15:54 10° N visible
15 Aug ? 03:25:29 10° NNE 03:27:07 12° NE 03:28:47 10° ENE visible
15 Aug ? 19:37:07 10° S 19:41:21 37° ESE 19:45:21 10° NE visible
15 Aug ? 21:19:39 10° WSW 21:23:24 26° NW 21:27:03 10° N visible
16 Aug ? 04:16:02 10° NNW 04:20:04 36° NE 04:24:18 10° ESE visible
16 Aug ? 20:29:08 10° SW 20:33:32 50° NW 20:37:45 10° NNE visible
